AAL1406 KDFW-KSAT

Flight info

Callsign AAL1406
Flight time 0h 45m
Altitude 32000
Route JASPA7 WINDU QERVO3
Aircraft A319/M-SDE3FGHIRWY/LB1

Departure

Time 2026-05-04 01:43
Airport Dallas Fort Worth International Airport (KDFW)

Arrival

Time 2026-05-04 02:29
Airport San Antonio International Airport (KSAT)
Time Latitude Longitude Altitude Speed Heading
2026-05-04 00:58 32.90756 -97.04576 598 ft 0 kts 181°
2026-05-04 01:25 32.90779 -97.04576 599 ft 4 kts 179°
2026-05-04 01:25 32.90804 -97.04573 599 ft 4 kts 218°
2026-05-04 01:25 32.90811 -97.04563 599 ft 1 kts 245°
2026-05-04 01:26 32.90812 -97.04561 599 ft 0 kts 245°
2026-05-04 01:29 32.90811 -97.04564 598 ft 1 kts 248°
2026-05-04 01:29 32.90811 -97.04573 598 ft 1 kts 272°
2026-05-04 01:30 32.90833 -97.04593 598 ft 10 kts 336°
2026-05-04 01:30 32.90905 -97.04600 598 ft 11 kts
2026-05-04 01:30 32.90982 -97.04608 598 ft 11 kts 331°
2026-05-04 01:30 32.91012 -97.04660 598 ft 12 kts 294°
2026-05-04 01:31 32.91018 -97.04750 600 ft 10 kts 269°
2026-05-04 01:31 32.91063 -97.04793 601 ft 9 kts 355°
2026-05-04 01:31 32.91125 -97.04794 602 ft 9 kts 359°
2026-05-04 01:31 32.91200 -97.04793 602 ft 12 kts
2026-05-04 01:32 32.91281 -97.04792 602 ft 12 kts
2026-05-04 01:32 32.91369 -97.04790 602 ft 13 kts
2026-05-04 01:32 32.91457 -97.04793 602 ft 11 kts 345°
2026-05-04 01:32 32.91491 -97.04851 618 ft 6 kts 276°
2026-05-04 01:33 32.91491 -97.04870 608 ft 2 kts 272°
2026-05-04 01:33 32.91491 -97.04925 613 ft 5 kts 269°
2026-05-04 01:33 32.91491 -97.04954 614 ft 3 kts 269°
2026-05-04 01:33 32.91476 -97.05053 617 ft 17 kts 229°
2026-05-04 01:34 32.91332 -97.05076 615 ft 40 kts 181°
2026-05-04 01:34 32.90804 -97.05074 611 ft 112 kts 180°
2026-05-04 01:34 32.89909 -97.05065 610 ft 106 kts 183°
2026-05-04 01:34 32.89660 -97.05069 614 ft 8 kts 151°
2026-05-04 01:35 32.89594 -97.05018 603 ft 16 kts 147°
2026-05-04 01:35 32.89498 -97.04954 602 ft 0 kts 150°
2026-05-04 01:36 32.89497 -97.04953 602 ft 2 kts 150°
2026-05-04 01:36 32.89432 -97.04899 601 ft 20 kts 138°
2026-05-04 01:36 32.89428 -97.04782 598 ft 13 kts 32°
2026-05-04 01:37 32.89495 -97.04769 598 ft 14 kts
2026-05-04 01:37 32.89613 -97.04771 599 ft 14 kts 357°
2026-05-04 01:37 32.89679 -97.04770 599 ft 14 kts
2026-05-04 01:37 32.89789 -97.04767 599 ft 16 kts
2026-05-04 01:38 32.89906 -97.04766 599 ft 16 kts
2026-05-04 01:38 32.90019 -97.04766 599 ft 16 kts
2026-05-04 01:38 32.90166 -97.04765 599 ft 17 kts
2026-05-04 01:38 32.90244 -97.04765 599 ft 17 kts 360°
2026-05-04 01:39 32.90386 -97.04765 599 ft 17 kts
2026-05-04 01:39 32.90480 -97.04762 600 ft 17 kts
2026-05-04 01:39 32.90601 -97.04762 599 ft 17 kts 359°
2026-05-04 01:39 32.90719 -97.04761 600 ft 17 kts
2026-05-04 01:40 32.90835 -97.04760 600 ft 17 kts
2026-05-04 01:40 32.90958 -97.04759 600 ft 17 kts 359°
2026-05-04 01:40 32.91073 -97.04793 601 ft 17 kts 359°
2026-05-04 01:40 32.91190 -97.04790 602 ft 16 kts
2026-05-04 01:41 32.91301 -97.04792 602 ft 16 kts 359°
2026-05-04 01:41 32.91422 -97.04792 602 ft 17 kts
2026-05-04 01:41 32.91490 -97.04863 613 ft 12 kts 275°
2026-05-04 01:41 32.91491 -97.04931 613 ft 5 kts 271°
2026-05-04 01:42 32.91492 -97.04987 615 ft 12 kts 270°
2026-05-04 01:42 32.91450 -97.05071 615 ft 12 kts 193°
2026-05-04 01:42 32.91231 -97.05076 615 ft 64 kts 180°
2026-05-04 01:42 32.90671 -97.05076 606 ft 122 kts 180°
2026-05-04 01:43 32.89658 -97.05079 647 ft 168 kts 180°
2026-05-04 01:43 32.88341 -97.05094 966 ft 191 kts 179°
2026-05-04 01:43 32.86927 -97.05074 1518 ft 211 kts 180°
2026-05-04 01:43 32.85456 -97.05083 2248 ft 223 kts 181°
2026-05-04 01:44 32.83889 -97.05106 3168 ft 229 kts 182°
2026-05-04 01:44 32.82272 -97.05141 4115 ft 234 kts 183°
2026-05-04 01:44 32.80592 -97.05180 5096 ft 239 kts 183°
2026-05-04 01:44 32.78909 -97.05220 6066 ft 244 kts 184°
2026-05-04 01:45 32.77123 -97.05263 6982 ft 250 kts 183°
2026-05-04 01:45 32.75381 -97.05304 7835 ft 257 kts 183°
2026-05-04 01:45 32.71672 -97.05400 9593 ft 268 kts 184°
2026-05-04 01:46 32.69688 -97.05454 10285 ft 282 kts 184°
2026-05-04 01:46 32.67617 -97.05493 10614 ft 307 kts 183°
2026-05-04 01:46 32.66131 -97.05512 10915 ft 318 kts 182°
2026-05-04 01:46 32.63832 -97.05535 11646 ft 326 kts 182°
2026-05-04 01:47 32.61336 -97.05558 12529 ft 331 kts 182°
2026-05-04 01:47 32.59097 -97.05572 13308 ft 335 kts 182°
2026-05-04 01:47 32.56699 -97.05588 14098 ft 339 kts 182°
2026-05-04 01:47 32.54222 -97.05612 14806 ft 343 kts 183°
2026-05-04 01:48 32.51863 -97.05638 15480 ft 348 kts 183°
2026-05-04 01:48 32.49393 -97.05665 16157 ft 353 kts 183°
2026-05-04 01:48 32.46752 -97.05692 16859 ft 358 kts 184°
2026-05-04 01:48 32.44263 -97.05719 17506 ft 363 kts 184°
2026-05-04 01:49 32.41631 -97.05750 18167 ft 368 kts 184°
2026-05-04 01:49 32.38949 -97.05787 18778 ft 372 kts 184°
2026-05-04 01:49 32.36367 -97.05821 19350 ft 376 kts 184°
2026-05-04 01:49 32.33669 -97.05853 19947 ft 380 kts 185°
2026-05-04 01:50 32.31818 -97.05873 20356 ft 383 kts 185°
2026-05-04 01:50 32.29055 -97.05906 20965 ft 387 kts 185°
2026-05-04 01:50 32.26218 -97.05953 21573 ft 390 kts 186°
2026-05-04 01:50 32.23503 -97.06028 22149 ft 394 kts 186°
2026-05-04 01:51 32.20721 -97.06125 22728 ft 397 kts 187°
2026-05-04 01:51 32.17840 -97.06229 23320 ft 401 kts 187°
2026-05-04 01:51 32.14997 -97.06327 23825 ft 405 kts 187°
2026-05-04 01:51 32.12125 -97.06420 24288 ft 409 kts 187°
2026-05-04 01:52 32.09191 -97.06515 24740 ft 413 kts 187°
2026-05-04 01:52 32.06223 -97.06612 25180 ft 417 kts 188°
2026-05-04 01:52 32.03290 -97.06704 25607 ft 421 kts 188°
2026-05-04 01:52 32.00345 -97.06795 26022 ft 425 kts 188°
2026-05-04 01:53 31.97296 -97.06890 26425 ft 429 kts 189°
2026-05-04 01:53 31.94221 -97.06988 26839 ft 433 kts 189°
2026-05-04 01:53 31.92140 -97.07053 27111 ft 435 kts 189°
2026-05-04 01:53 31.90337 -97.07110 27346 ft 437 kts 189°
2026-05-04 01:54 31.85167 -97.07272 28032 ft 442 kts 189°
2026-05-04 01:54 31.83131 -97.07333 28327 ft 443 kts 189°
2026-05-04 01:54 31.79831 -97.07432 28773 ft 446 kts 189°
2026-05-04 01:54 31.76634 -97.07524 29174 ft 449 kts 189°
2026-05-04 01:55 31.73498 -97.07618 29568 ft 452 kts 190°
2026-05-04 01:55 31.70318 -97.07719 29945 ft 455 kts 190°
2026-05-04 01:55 31.67124 -97.07824 30298 ft 458 kts 190°
2026-05-04 01:55 31.63906 -97.07926 30628 ft 461 kts 191°
2026-05-04 01:56 31.60692 -97.08027 30946 ft 463 kts 191°
2026-05-04 01:56 31.57461 -97.08130 31223 ft 466 kts 190°
2026-05-04 01:56 31.54204 -97.08340 31523 ft 462 kts 197°
2026-05-04 01:56 31.51085 -97.09050 31820 ft 452 kts 205°
2026-05-04 01:57 31.48109 -97.10181 32047 ft 450 kts 208°
2026-05-04 01:57 31.45126 -97.11355 32091 ft 438 kts 208°
2026-05-04 01:57 31.42251 -97.12469 32099 ft 421 kts 209°
2026-05-04 01:57 31.39496 -97.13539 32102 ft 413 kts 209°
2026-05-04 01:58 31.34043 -97.15685 32102 ft 410 kts 210°
2026-05-04 01:58 31.28574 -97.17843 32103 ft 410 kts 210°
2026-05-04 01:59 31.23018 -97.20016 32106 ft 410 kts 210°
2026-05-04 01:59 31.17509 -97.22172 32106 ft 409 kts 210°
2026-05-04 02:00 31.12906 -97.23966 32106 ft 409 kts 210°
2026-05-04 02:00 31.07437 -97.26103 32107 ft 409 kts 210°
2026-05-04 02:01 31.01945 -97.28239 32080 ft 409 kts 210°
2026-05-04 02:01 30.96431 -97.30375 31763 ft 409 kts 210°
2026-05-04 02:02 30.93705 -97.31430 31516 ft 407 kts 210°
2026-05-04 02:02 30.90983 -97.32486 31271 ft 406 kts 210°
2026-05-04 02:02 30.88287 -97.33535 31028 ft 404 kts 209°
2026-05-04 02:02 30.85620 -97.34570 30798 ft 403 kts 209°
2026-05-04 02:03 30.82924 -97.35611 30560 ft 402 kts 209°
2026-05-04 02:03 30.80267 -97.36636 30330 ft 402 kts 209°
2026-05-04 02:03 30.77548 -97.37687 30076 ft 401 kts 209°
2026-05-04 02:03 30.74867 -97.38723 29783 ft 399 kts 209°
2026-05-04 02:04 30.72242 -97.39739 29490 ft 395 kts 209°
2026-05-04 02:04 30.70506 -97.40413 29308 ft 393 kts 209°
2026-05-04 02:04 30.66966 -97.41784 28947 ft 390 kts 209°
2026-05-04 02:04 30.64350 -97.42793 28679 ft 389 kts 209°
2026-05-04 02:05 30.61812 -97.43769 28422 ft 387 kts 209°
2026-05-04 02:05 30.59278 -97.44746 28161 ft 385 kts 209°
2026-05-04 02:05 30.57559 -97.45409 27992 ft 383 kts 209°
2026-05-04 02:05 30.55033 -97.46382 27739 ft 382 kts 209°
2026-05-04 02:06 30.52480 -97.47363 27483 ft 381 kts 209°
2026-05-04 02:06 30.49875 -97.48371 27227 ft 391 kts 209°
2026-05-04 02:06 30.47261 -97.49394 26984 ft 410 kts 208°
2026-05-04 02:06 30.44500 -97.50469 26732 ft 416 kts 208°
2026-05-04 02:07 30.41580 -97.51586 26480 ft 416 kts 207°
2026-05-04 02:07 30.38965 -97.52583 26199 ft 414 kts 208°
2026-05-04 02:07 30.36414 -97.53965 25676 ft 398 kts 219°
2026-05-04 02:07 30.34032 -97.55594 25135 ft 394 kts 220°
2026-05-04 02:08 30.31630 -97.57253 24561 ft 392 kts 220°
2026-05-04 02:08 30.29359 -97.58832 24029 ft 390 kts 220°
2026-05-04 02:08 30.27012 -97.60467 23399 ft 389 kts 220°
2026-05-04 02:08 30.24649 -97.62109 22968 ft 383 kts 219°
2026-05-04 02:09 30.22372 -97.63687 22303 ft 385 kts 219°
2026-05-04 02:09 30.20119 -97.65242 21832 ft 381 kts 219°
2026-05-04 02:09 30.17805 -97.66838 21192 ft 380 kts 218°
2026-05-04 02:09 30.15506 -97.68423 20643 ft 378 kts 218°
2026-05-04 02:10 30.13157 -97.70042 20094 ft 376 kts 218°
2026-05-04 02:10 30.10953 -97.71564 19574 ft 376 kts 218°
2026-05-04 02:10 30.08684 -97.73129 19035 ft 375 kts 217°
2026-05-04 02:10 30.07168 -97.74173 18683 ft 375 kts 217°
2026-05-04 02:11 30.04076 -97.76303 17961 ft 372 kts 217°
2026-05-04 02:11 30.01905 -97.77797 17526 ft 363 kts 217°
2026-05-04 02:11 29.99719 -97.79299 17073 ft 359 kts 216°
2026-05-04 02:11 29.97551 -97.80782 16581 ft 355 kts 216°
2026-05-04 02:12 29.95408 -97.82249 15970 ft 351 kts 216°
2026-05-04 02:12 29.93288 -97.83705 15385 ft 349 kts 215°
2026-05-04 02:12 29.91797 -97.84736 15051 ft 348 kts 216°
2026-05-04 02:12 29.90013 -97.86515 14591 ft 338 kts 235°
2026-05-04 02:13 29.88859 -97.88918 14130 ft 330 kts 251°
2026-05-04 02:13 29.88050 -97.91387 13658 ft 329 kts 251°
2026-05-04 02:13 29.87227 -97.93906 13187 ft 326 kts 252°
2026-05-04 02:13 29.86431 -97.96343 12788 ft 322 kts 252°
2026-05-04 02:14 29.85646 -97.98704 12647 ft 309 kts 252°
2026-05-04 02:14 29.84886 -98.00970 12513 ft 297 kts 252°
2026-05-04 02:14 29.84142 -98.03171 12138 ft 289 kts 251°
2026-05-04 02:14 29.83417 -98.05319 11673 ft 286 kts 252°
2026-05-04 02:15 29.82714 -98.07425 11209 ft 284 kts 252°
2026-05-04 02:15 29.81994 -98.09591 10799 ft 279 kts 251°
2026-05-04 02:15 29.81286 -98.11719 10468 ft 277 kts 251°
2026-05-04 02:15 29.80585 -98.13830 10149 ft 275 kts 251°
2026-05-04 02:16 29.79887 -98.15924 9814 ft 274 kts 251°
2026-05-04 02:16 29.79197 -98.17992 9495 ft 273 kts 251°
2026-05-04 02:16 29.78522 -98.20027 9187 ft 272 kts 251°
2026-05-04 02:16 29.77839 -98.22083 8878 ft 271 kts 250°
2026-05-04 02:17 29.77165 -98.24102 8574 ft 270 kts 250°
2026-05-04 02:17 29.76479 -98.26162 8265 ft 268 kts 250°
2026-05-04 02:17 29.75823 -98.28142 7969 ft 267 kts 250°
2026-05-04 02:17 29.75155 -98.30145 7513 ft 269 kts 249°
2026-05-04 02:18 29.74485 -98.32146 7066 ft 269 kts 249°
2026-05-04 02:18 29.73812 -98.34160 6638 ft 269 kts 248°
2026-05-04 02:18 29.73146 -98.36178 6345 ft 262 kts 250°
2026-05-04 02:18 29.72856 -98.38243 6066 ft 257 kts 263°
2026-05-04 02:19 29.72702 -98.40219 5931 ft 245 kts 262°
2026-05-04 02:19 29.72552 -98.42136 5812 ft 234 kts 262°
2026-05-04 02:19 29.72407 -98.43971 5693 ft 224 kts 262°
2026-05-04 02:19 29.72309 -98.45153 5609 ft 217 kts 261°
2026-05-04 02:20 29.72170 -98.46896 5481 ft 208 kts 261°
2026-05-04 02:20 29.72052 -98.48511 5302 ft 195 kts 261°
2026-05-04 02:20 29.71951 -98.50059 4955 ft 193 kts 261°
2026-05-04 02:20 29.71862 -98.51605 4539 ft 194 kts 261°
2026-05-04 02:21 29.71776 -98.53152 4136 ft 195 kts 262°
2026-05-04 02:21 29.71688 -98.54719 3999 ft 194 kts 261°
2026-05-04 02:21 29.71598 -98.56273 3997 ft 195 kts 261°
2026-05-04 02:21 29.71306 -98.57770 3999 ft 186 kts 235°
2026-05-04 02:22 29.70552 -98.58873 3998 ft 160 kts 223°
2026-05-04 02:22 29.69823 -98.59765 3984 ft 145 kts 221°
2026-05-04 02:22 29.69101 -98.60631 3988 ft 140 kts 221°
2026-05-04 02:22 29.68429 -98.61400 3992 ft 138 kts 218°
2026-05-04 02:23 29.67699 -98.62148 3994 ft 137 kts 217°
2026-05-04 02:23 29.66918 -98.62728 3997 ft 135 kts 197°
2026-05-04 02:23 29.66014 -98.62853 3964 ft 131 kts 174°
2026-05-04 02:23 29.65155 -98.62491 3881 ft 132 kts 150°
2026-05-04 02:24 29.64481 -98.61725 3750 ft 131 kts 136°
2026-05-04 02:24 29.63894 -98.60968 3601 ft 129 kts 136°
2026-05-04 02:24 29.63307 -98.60209 3447 ft 127 kts 136°
2026-05-04 02:24 29.62701 -98.59427 3283 ft 127 kts 136°
2026-05-04 02:25 29.62123 -98.58681 3115 ft 127 kts 135°
2026-05-04 02:25 29.61531 -98.57917 2944 ft 127 kts 135°
2026-05-04 02:25 29.60935 -98.57147 2783 ft 126 kts 135°
2026-05-04 02:25 29.60352 -98.56395 2621 ft 126 kts 135°
2026-05-04 02:26 29.59780 -98.55656 2463 ft 125 kts 135°
2026-05-04 02:26 29.59184 -98.54887 2297 ft 125 kts 135°
2026-05-04 02:26 29.58596 -98.54129 2129 ft 125 kts 135°
2026-05-04 02:26 29.58039 -98.53409 1977 ft 125 kts 134°
2026-05-04 02:27 29.57440 -98.52637 1813 ft 125 kts 133°
2026-05-04 02:27 29.56869 -98.51901 1651 ft 129 kts 134°
2026-05-04 02:27 29.56276 -98.51136 1472 ft 126 kts 132°
2026-05-04 02:27 29.55688 -98.50378 1295 ft 125 kts 130°
2026-05-04 02:28 29.55104 -98.49626 1118 ft 127 kts 131°
2026-05-04 02:28 29.54506 -98.48855 946 ft 127 kts 130°
2026-05-04 02:28 29.54126 -98.48366 835 ft 126 kts 130°
2026-05-04 02:28 29.53610 -98.47693 795 ft 86 kts 132°
2026-05-04 02:29 29.53313 -98.47320 794 ft 32 kts 131°
2026-05-04 02:29 29.53194 -98.47162 795 ft 27 kts 131°
2026-05-04 02:29 29.53056 -98.47075 807 ft 21 kts 208°
2026-05-04 02:29 29.53013 -98.47113 790 ft 0 kts 220°
2026-05-04 02:30 29.53011 -98.47113 789 ft 1 kts 213°
2026-05-04 02:31 29.52976 -98.47074 791 ft 10 kts 125°
2026-05-04 02:31 29.52929 -98.47005 789 ft 12 kts 130°
2026-05-04 02:31 29.52863 -98.46920 786 ft 16 kts 136°
2026-05-04 02:31 29.52764 -98.46906 786 ft 12 kts 176°
2026-05-04 02:32 29.52724 -98.46950 786 ft 7 kts 282°
2026-05-04 02:32 29.52725 -98.46953 786 ft 0 kts 288°